Location: Borbetomagus
(49.6328°N, 8.3592°E)
Time: 20:19:40
(UTC+00:00)

CZ-4C R/B - Pass Details

Date: 19 May 2025
Orbit: 425 x 537 km, 98.0° (Epoch: 20 June)

Event Time Altitude Azimuth Distance (km) Brightness Sun altitude
Rises 21:14:08 0° 24° (NNE) 2,607 7.3 -14.8°
Reaches altitude 10° 21:16:32 10° 38° (NE) 1,695 6.1 -15.0°
Maximum altitude 21:19:35 25° 95° (E) 1,006 4.3 -15.2°
Enters shadow 21:20:08 24° 111° (ESE) 1,031 4.3 -15.2°
